Showing default

IRIDIUM 107, 42960

Orbit data source: Space-Track

IRIDIUM 107, 42960 is a payload satellite owned by Iridium (US) in LEO that was launched on Mon, 09 Oct 2017 UTC via an FALCON 9 launch vehicle from the Air Force Western Test Range (AFWTR). Payload-class satellites include a variety of spacecraft equipped with specific instruments for various scientific and technological missions. These include communications satellites like Starlink; space stations such as the ISS; scientific satellites like the Hubble; Earth observation satellites from companies like Planet Labs, Umbra, and HawkEye 360; GPS; miniature CubeSats for education and research; and military/defense satellites.

Loading next visibility...
Identifier
42960, 2017-061F
Orbit
LEO
Country
Flag of USUS
Related business
Manufacturer
OATK SSG Gilbert
Mission
Operational Commercial Communications
Bus & Motor
ELITEBUS, Unknown motor
Mass
860 kg wet, 700 kg dry
Launch date (UTC)
2017-10-09 (8 years ago)
Launch vehicle
FALCON 9
Launch site
Air Force Western Test Range (AFWTR)
Object type
Payload
Rocket body
Debris
Shape & HBR
Trap Box + 2 Pan, 4.8 m
Radar Cross Section
10.154 m², Large (>1 m²)

Expand to show TLE details & history
Last TLE update: 9 hours ago

TLE from 9 hours ago
0 IRIDIUM 107
1 42960U 17061F   25312.74698736  .00000169  00000-0  53394-4 0  9993
2 42960  86.3941 117.4466 0001779  80.2828 279.8568 14.34218428423220
Epoch: 2025-11-08T17:55Z
TLE epoch observation values (Epoch: 2025-11-08T17:55:39.707Z)
Latitude
-0.00012°
Longitude
160.35898°
Altitude
780.498 km
Speed
7.464 km/s
True Right ascension
07h 49m 47s
True Declination
0° 00' 00"
Sunlit
Object was in daylight at epoch
Visualization orbit readout
Latitude
Unknown
Longitude
Unknown
Altitude
Unknown
Speed
Unknown
Apparent Right ascension
Unknown
Apparent Declination
Unknown
Sunlit
N/A
Visualization observer readout
Local Sidereal Time
22:40:27
Azimuth
Unknown
Elevation
Unknown
Doppler factor
Unknown
Orbital elements
Apogee altitude
775.902 km
Perigee altitude
773.357 km
Semi-major axis
7,152.766 km
Eccentricity
0.00018
Inclination
86.3941°
RAAN
117.4466°
Arg. of periapsis
80.2828°
True anomaly
279.83671°
Mean anomaly
279.8568°
Eccentric anomaly
279.84676°
Mean motion
3.58783 °/min
Orbital period
100.34 mins
BSTAR
0.000053394
Loading maneuver chart data...
Computing Atmospheric mass density...
Loading historical data...
Loading historical data...
Loading historical data...
Loading historical data...
Loading historical data...
Loading historical data...
Loading historical data...

Documentation

Showing up to 5 results
|